owner,sensor,date,latitude,longitude,vertical_datum,mass_concentration_of_oxygen_in_sea_water,qcFlag 
DISL,ioos:station:DISL:BSCA:1,2014-12-01T00:00:00Z,30.3288,-87.8293,2.006,8.98,1111122 
DISL,ioos:station:DISL:BSCA:1,2014-12-01T00:30:00Z,30.3288,-87.8293,2.018,8.01,1111122 
DISL,ioos:station:DISL:BSCA:1,2014-12-01T01:00:00Z,30.3288,-87.8293,2.039,8.18,1111122 
DISL,ioos:station:DISL:BSCA:1,2014-12-01T01:30:00Z,30.3288,-87.8293,2.043,9.87,1111122 
DISL,ioos:station:DISL:BSCA:1,2014-12-01T02:00:00Z,30.3288,-87.8293,2.07,9.94,1111122 
DISL,ioos:station:DISL:BSCA:1,2014-12-01T02:30:00Z,30.3288,-87.8293,2.062,10.28,1111122 
DISL,ioos:station:DISL:BSCA:1,2014-12-01T03:00:00Z,30.3288,-87.8293,2.059,10.28,1111122 
DISL,ioos:station:DISL:BSCA:1,2014-12-01T03:30:00Z,30.3288,-87.8293,2.055,10.29,1111122 
DISL,ioos:station:DISL:BSCA:1,2014-12-01T04:00:00Z,30.3288,-87.8293,2.037,10.33,1111122 
DISL,ioos:station:DISL:BSCA:1,2014-12-01T04:30:00Z,30.3288,-87.8293,2.021,10.27,1111122 
DISL,ioos:station:DISL:BSCA:1,2014-12-01T05:00:00Z,30.3288,-87.8293,1.989,9.83,1111122 
DISL,ioos:station:DISL:BSCA:1,2014-12-01T05:30:00Z,30.3288,-87.8293,1.968,9.48,1111122 
DISL,ioos:station:DISL:BSCA:1,2014-12-01T06:00:00Z,30.3288,-87.8293,1.941,8.16,1111122 
DISL,ioos:station:DISL:BSCA:1,2014-12-01T06:30:00Z,30.3288,-87.8293,1.924,7.19,1111122 
DISL,ioos:station:DISL:BSCA:1,2014-12-01T07:00:00Z,30.3288,-87.8293,1.902,6.67,1111122 
DISL,ioos:station:DISL:BSCA:1,2014-12-01T07:30:00Z,30.3288,-87.8293,1.897,6.79,1111122 
DISL,ioos:station:DISL:BSCA:1,2014-12-01T08:00:00Z,30.3288,-87.8293,1.887,6.07,1111122 
DISL,ioos:station:DISL:BSCA:1,2014-12-01T08:30:00Z,30.3288,-87.8293,1.873,5.72,1111122 
DISL,ioos:station:DISL:BSCA:1,2014-12-01T09:00:00Z,30.3288,-87.8293,1.857,6.67,1111122 
DISL,ioos:station:DISL:BSCA:1,2014-12-01T09:30:00Z,30.3288,-87.8293,1.842,6.6,1111122 
DISL,ioos:station:DISL:BSCA:1,2014-12-01T10:00:00Z,30.3288,-87.8293,1.833,6.39,1111122 
DISL,ioos:station:DISL:BSCA:1,2014-12-01T10:30:00Z,30.3288,-87.8293,1.819,6.67,1111122 
DISL,ioos:station:DISL:BSCA:1,2014-12-01T11:00:00Z,30.3288,-87.8293,1.807,7.37,1111122 
DISL,ioos:station:DISL:BSCA:1,2014-12-01T11:30:00Z,30.3288,-87.8293,1.798,7.17,1111122 
DISL,ioos:station:DISL:BSCA:1,2014-12-01T12:00:00Z,30.3288,-87.8293,1.8,6.69,1111122 
DISL,ioos:station:DISL:BSCA:1,2014-12-01T12:30:00Z,30.3288,-87.8293,1.799,7.46,1111122 
DISL,ioos:station:DISL:BSCA:1,2014-12-01T13:00:00Z,30.3288,-87.8293,1.813,6.79,1111122 
DISL,ioos:station:DISL:BSCA:1,2014-12-01T13:30:00Z,30.3288,-87.8293,1.825,6.49,1111122 
DISL,ioos:station:DISL:BSCA:1,2014-12-01T14:00:00Z,30.3288,-87.8293,1.829,7.07,1111122 
DISL,ioos:station:DISL:BSCA:1,2014-12-01T14:30:00Z,30.3288,-87.8293,1.83,9.13,1111122 
DISL,ioos:station:DISL:BSCA:1,2014-12-01T15:00:00Z,30.3288,-87.8293,1.828,8.27,1111122 
DISL,ioos:station:DISL:BSCA:1,2014-12-01T15:30:00Z,30.3288,-87.8293,1.832,6.67,1111122 
DISL,ioos:station:DISL:BSCA:1,2014-12-01T16:00:00Z,30.3288,-87.8293,1.833,7.05,1111122 
DISL,ioos:station:DISL:BSCA:1,2014-12-01T16:30:00Z,30.3288,-87.8293,1.838,6.8,1111122 
DISL,ioos:station:DISL:BSCA:1,2014-12-01T17:00:00Z,30.3288,-87.8293,1.838,9.22,1111122 
DISL,ioos:station:DISL:BSCA:1,2014-12-01T17:30:00Z,30.3288,-87.8293,1.838,9.3,1111122 
DISL,ioos:station:DISL:BSCA:1,2014-12-01T18:00:00Z,30.3288,-87.8293,1.836,9.52,1111122 
DISL,ioos:station:DISL:BSCA:1,2014-12-01T18:30:00Z,30.3288,-87.8293,1.84,9.55,1111122 
DISL,ioos:station:DISL:BSCA:1,2014-12-01T19:00:00Z,30.3288,-87.8293,1.842,8.61,1111122 
DISL,ioos:station:DISL:BSCA:1,2014-12-01T19:30:00Z,30.3288,-87.8293,1.848,8.19,1111122 
DISL,ioos:station:DISL:BSCA:1,2014-12-01T20:00:00Z,30.3288,-87.8293,1.854,9.36,1111122 
DISL,ioos:station:DISL:BSCA:1,2014-12-01T20:30:00Z,30.3288,-87.8293,1.871,9.39,1111122 
DISL,ioos:station:DISL:BSCA:1,2014-12-01T21:00:00Z,30.3288,-87.8293,1.894,9.18,1111122 
DISL,ioos:station:DISL:BSCA:1,2014-12-01T21:30:00Z,30.3288,-87.8293,1.907,9.71,1111122 
DISL,ioos:station:DISL:BSCA:1,2014-12-01T22:00:00Z,30.3288,-87.8293,1.92,9.97,1111122 
DISL,ioos:station:DISL:BSCA:1,2014-12-01T22:30:00Z,30.3288,-87.8293,1.953,9.97,1111122 
DISL,ioos:station:DISL:BSCA:1,2014-12-01T23:00:00Z,30.3288,-87.8293,1.952,10.0,1111122 
DISL,ioos:station:DISL:BSCA:1,2014-12-01T23:30:00Z,30.3288,-87.8293,1.966,9.86,1111122 
DISL,ioos:station:DISL:BSCA:1,2014-12-02T00:00:00Z,30.3288,-87.8293,1.976,9.8,1111122 
DISL,ioos:station:DISL:BSCA:1,2014-12-02T00:30:00Z,30.3288,-87.8293,1.992,9.66,1111122 
DISL,ioos:station:DISL:BSCA:1,2014-12-02T01:00:00Z,30.3288,-87.8293,2.008,9.06,1111122 
DISL,ioos:station:DISL:BSCA:1,2014-12-02T01:30:00Z,30.3288,-87.8293,2.02,8.87,1111122 
DISL,ioos:station:DISL:BSCA:1,2014-12-02T02:00:00Z,30.3288,-87.8293,2.027,8.69,1111122 
DISL,ioos:station:DISL:BSCA:1,2014-12-02T02:30:00Z,30.3288,-87.8293,2.037,9.36,1111122 
DISL,ioos:station:DISL:BSCA:1,2014-12-02T03:00:00Z,30.3288,-87.8293,2.042,9.37,1111122 
DISL,ioos:station:DISL:BSCA:1,2014-12-02T03:30:00Z,30.3288,-87.8293,2.039,9.42,1111122 
DISL,ioos:station:DISL:BSCA:1,2014-12-02T04:00:00Z,30.3288,-87.8293,2.022,9.38,1111122 
DISL,ioos:station:DISL:BSCA:1,2014-12-02T04:30:00Z,30.3288,-87.8293,2.013,9.41,1111122 
DISL,ioos:station:DISL:BSCA:1,2014-12-02T05:00:00Z,30.3288,-87.8293,1.974,9.33,1111122 
DISL,ioos:station:DISL:BSCA:1,2014-12-02T05:30:00Z,30.3288,-87.8293,1.966,9.25,1111122 
DISL,ioos:station:DISL:BSCA:1,2014-12-02T06:00:00Z,30.3288,-87.8293,1.939,9.21,1111122 
DISL,ioos:station:DISL:BSCA:1,2014-12-02T06:30:00Z,30.3288,-87.8293,1.908,9.17,1111122 
DISL,ioos:station:DISL:BSCA:1,2014-12-02T07:00:00Z,30.3288,-87.8293,1.88,9.13,1111122 
DISL,ioos:station:DISL:BSCA:1,2014-12-02T07:30:00Z,30.3288,-87.8293,1.853,8.69,1111122 
DISL,ioos:station:DISL:BSCA:1,2014-12-02T08:00:00Z,30.3288,-87.8293,1.846,8.99,1111122 
DISL,ioos:station:DISL:BSCA:1,2014-12-02T08:30:00Z,30.3288,-87.8293,1.835,8.95,1111122 
DISL,ioos:station:DISL:BSCA:1,2014-12-02T09:00:00Z,30.3288,-87.8293,1.831,8.35,1111122 
DISL,ioos:station:DISL:BSCA:1,2014-12-02T09:30:00Z,30.3288,-87.8293,1.817,8.79,1111122 
DISL,ioos:station:DISL:BSCA:1,2014-12-02T10:00:00Z,30.3288,-87.8293,1.816,7.6,1111122 
DISL,ioos:station:DISL:BSCA:1,2014-12-02T10:30:00Z,30.3288,-87.8293,1.797,6.94,1111122 
DISL,ioos:station:DISL:BSCA:1,2014-12-02T11:00:00Z,30.3288,-87.8293,1.791,6.7,1111122 
DISL,ioos:station:DISL:BSCA:1,2014-12-02T11:30:00Z,30.3288,-87.8293,1.794,5.33,1111122 
DISL,ioos:station:DISL:BSCA:1,2014-12-02T12:00:00Z,30.3288,-87.8293,1.799,6.44,1111122 
DISL,ioos:station:DISL:BSCA:1,2014-12-02T12:30:00Z,30.3288,-87.8293,1.81,8.17,1111122 
DISL,ioos:station:DISL:BSCA:1,2014-12-02T13:00:00Z,30.3288,-87.8293,1.803,8.36,1111122 
DISL,ioos:station:DISL:BSCA:1,2014-12-02T13:30:00Z,30.3288,-87.8293,1.825,6.83,1111122 
DISL,ioos:station:DISL:BSCA:1,2014-12-02T14:00:00Z,30.3288,-87.8293,1.843,6.18,1111122 
DISL,ioos:station:DISL:BSCA:1,2014-12-02T14:30:00Z,30.3288,-87.8293,1.87,6.78,1111122 
DISL,ioos:station:DISL:BSCA:1,2014-12-02T15:00:00Z,30.3288,-87.8293,1.89,7.77,1111122 
DISL,ioos:station:DISL:BSCA:1,2014-12-02T15:30:00Z,30.3288,-87.8293,1.918,8.45,1111122 
DISL,ioos:station:DISL:BSCA:1,2014-12-02T16:00:00Z,30.3288,-87.8293,1.918,8.5,1111122 
DISL,ioos:station:DISL:BSCA:1,2014-12-02T16:30:00Z,30.3288,-87.8293,1.921,7.47,1111122 
DISL,ioos:station:DISL:BSCA:1,2014-12-02T17:00:00Z,30.3288,-87.8293,1.926,6.41,1111122 
DISL,ioos:station:DISL:BSCA:1,2014-12-02T17:30:00Z,30.3288,-87.8293,1.926,6.25,1111122 
DISL,ioos:station:DISL:BSCA:1,2014-12-02T18:00:00Z,30.3288,-87.8293,1.93,6.88,1111122 
DISL,ioos:station:DISL:BSCA:1,2014-12-02T18:30:00Z,30.3288,-87.8293,1.958,6.94,1111122 
DISL,ioos:station:DISL:BSCA:1,2014-12-02T19:00:00Z,30.3288,-87.8293,1.964,7.36,1111122 
DISL,ioos:station:DISL:BSCA:1,2014-12-02T19:30:00Z,30.3288,-87.8293,1.986,7.88,1111122 
DISL,ioos:station:DISL:BSCA:1,2014-12-02T20:00:00Z,30.3288,-87.8293,2.005,8.18,1111122 
DISL,ioos:station:DISL:BSCA:1,2014-12-02T20:30:00Z,30.3288,-87.8293,2.024,8.37,1111122 
DISL,ioos:station:DISL:BSCA:1,2014-12-02T21:00:00Z,30.3288,-87.8293,2.059,7.62,1111122 
DISL,ioos:station:DISL:BSCA:1,2014-12-02T21:30:00Z,30.3288,-87.8293,2.072,7.98,1111122 
DISL,ioos:station:DISL:BSCA:1,2014-12-02T22:00:00Z,30.3288,-87.8293,2.085,7.62,1111122 
DISL,ioos:station:DISL:BSCA:1,2014-12-02T22:30:00Z,30.3288,-87.8293,2.094,8.04,1111122 
DISL,ioos:station:DISL:BSCA:1,2014-12-02T23:00:00Z,30.3288,-87.8293,2.115,8.02,1111122 
DISL,ioos:station:DISL:BSCA:1,2014-12-02T23:30:00Z,30.3288,-87.8293,2.126,8.13,1111122 
DISL,ioos:station:DISL:BSCA:1,2014-12-03T00:00:00Z,30.3288,-87.8293,2.142,8.35,1111122 
DISL,ioos:station:DISL:BSCA:1,2014-12-03T00:30:00Z,30.3288,-87.8293,2.156,8.6,1111122 
DISL,ioos:station:DISL:BSCA:1,2014-12-03T01:00:00Z,30.3288,-87.8293,2.159,8.31,1111122 
DISL,ioos:station:DISL:BSCA:1,2014-12-03T01:30:00Z,30.3288,-87.8293,2.165,7.42,1111122 
DISL,ioos:station:DISL:BSCA:1,2014-12-03T02:00:00Z,30.3288,-87.8293,2.172,5.96,1111122 
DISL,ioos:station:DISL:BSCA:1,2014-12-03T02:30:00Z,30.3288,-87.8293,2.182,6.34,1111122 
DISL,ioos:station:DISL:BSCA:1,2014-12-03T03:00:00Z,30.3288,-87.8293,2.179,6.54,1111122 
DISL,ioos:station:DISL:BSCA:1,2014-12-03T03:30:00Z,30.3288,-87.8293,2.162,6.96,1111122 
DISL,ioos:station:DISL:BSCA:1,2014-12-03T04:00:00Z,30.3288,-87.8293,2.139,7.33,1111122 
DISL,ioos:station:DISL:BSCA:1,2014-12-03T04:30:00Z,30.3288,-87.8293,2.108,7.41,1111122 
DISL,ioos:station:DISL:BSCA:1,2014-12-03T05:00:00Z,30.3288,-87.8293,2.078,6.04,1111122 
DISL,ioos:station:DISL:BSCA:1,2014-12-03T05:30:00Z,30.3288,-87.8293,2.04,5.69,1111122 
DISL,ioos:station:DISL:BSCA:1,2014-12-03T06:00:00Z,30.3288,-87.8293,2.006,4.79,1111122 
DISL,ioos:station:DISL:BSCA:1,2014-12-03T06:30:00Z,30.3288,-87.8293,1.969,4.05,1111122 
DISL,ioos:station:DISL:BSCA:1,2014-12-03T07:00:00Z,30.3288,-87.8293,1.933,3.91,1111122 
DISL,ioos:station:DISL:BSCA:1,2014-12-03T07:30:00Z,30.3288,-87.8293,1.905,3.57,1111122 
DISL,ioos:station:DISL:BSCA:1,2014-12-03T08:00:00Z,30.3288,-87.8293,1.884,5.46,1111122 
DISL,ioos:station:DISL:BSCA:1,2014-12-03T08:30:00Z,30.3288,-87.8293,1.851,4.99,1111122 
DISL,ioos:station:DISL:BSCA:1,2014-12-03T09:00:00Z,30.3288,-87.8293,1.832,3.69,1111122 
DISL,ioos:station:DISL:BSCA:1,2014-12-03T09:30:00Z,30.3288,-87.8293,1.802,3.64,1111122 
DISL,ioos:station:DISL:BSCA:1,2014-12-03T10:00:00Z,30.3288,-87.8293,1.772,4.47,1111122 
DISL,ioos:station:DISL:BSCA:1,2014-12-03T10:30:00Z,30.3288,-87.8293,1.746,5.59,1111122 
DISL,ioos:station:DISL:BSCA:1,2014-12-03T11:00:00Z,30.3288,-87.8293,1.725,4.1,1111122 
DISL,ioos:station:DISL:BSCA:1,2014-12-03T11:30:00Z,30.3288,-87.8293,1.707,3.09,1111122 
DISL,ioos:station:DISL:BSCA:1,2014-12-03T12:00:00Z,30.3288,-87.8293,1.696,6.04,1111122 
DISL,ioos:station:DISL:BSCA:1,2014-12-03T12:30:00Z,30.3288,-87.8293,1.69,4.48,1111122 
DISL,ioos:station:DISL:BSCA:1,2014-12-03T13:00:00Z,30.3288,-87.8293,1.687,5.19,1111122 
DISL,ioos:station:DISL:BSCA:1,2014-12-03T13:30:00Z,30.3288,-87.8293,1.689,5.28,1111122 
DISL,ioos:station:DISL:BSCA:1,2014-12-03T14:00:00Z,30.3288,-87.8293,1.699,6.69,1111122 
DISL,ioos:station:DISL:BSCA:1,2014-12-03T14:30:00Z,30.3288,-87.8293,1.719,6.25,1111122 
DISL,ioos:station:DISL:BSCA:1,2014-12-03T15:00:00Z,30.3288,-87.8293,1.741,5.35,1111122 
DISL,ioos:station:DISL:BSCA:1,2014-12-03T15:30:00Z,30.3288,-87.8293,1.767,5.34,1111122 
DISL,ioos:station:DISL:BSCA:1,2014-12-03T16:00:00Z,30.3288,-87.8293,1.794,5.97,1111122 
DISL,ioos:station:DISL:BSCA:1,2014-12-03T16:30:00Z,30.3288,-87.8293,1.815,5.86,1111122 
DISL,ioos:station:DISL:BSCA:1,2014-12-03T17:00:00Z,30.3288,-87.8293,1.844,5.58,1111122 
DISL,ioos:station:DISL:BSCA:1,2014-12-03T17:30:00Z,30.3288,-87.8293,1.866,5.97,1111122 
DISL,ioos:station:DISL:BSCA:1,2014-12-03T18:00:00Z,30.3288,-87.8293,1.89,6.61,1111122 
DISL,ioos:station:DISL:BSCA:1,2014-12-03T18:30:00Z,30.3288,-87.8293,1.912,7.2,1111122 
DISL,ioos:station:DISL:BSCA:1,2014-12-03T19:00:00Z,30.3288,-87.8293,1.95,7.86,1111122 
DISL,ioos:station:DISL:BSCA:1,2014-12-03T19:30:00Z,30.3288,-87.8293,1.94,8.08,1111122 
DISL,ioos:station:DISL:BSCA:1,2014-12-03T20:00:00Z,30.3288,-87.8293,1.965,7.87,1111122 
DISL,ioos:station:DISL:BSCA:1,2014-12-03T20:30:00Z,30.3288,-87.8293,1.987,8.37,1111122 
DISL,ioos:station:DISL:BSCA:1,2014-12-03T21:00:00Z,30.3288,-87.8293,2.027,8.84,1111122 
DISL,ioos:station:DISL:BSCA:1,2014-12-03T21:30:00Z,30.3288,-87.8293,2.056,8.95,1111122 
DISL,ioos:station:DISL:BSCA:1,2014-12-03T22:00:00Z,30.3288,-87.8293,2.089,8.62,1111122 
DISL,ioos:station:DISL:BSCA:1,2014-12-03T22:30:00Z,30.3288,-87.8293,2.117,8.78,1111122 
DISL,ioos:station:DISL:BSCA:1,2014-12-03T23:00:00Z,30.3288,-87.8293,2.126,7.97,1111122 
DISL,ioos:station:DISL:BSCA:1,2014-12-03T23:30:00Z,30.3288,-87.8293,2.146,6.83,1111122 
DISL,ioos:station:DISL:BSCA:1,2014-12-04T00:00:00Z,30.3288,-87.8293,2.157,8.77,1111122 
DISL,ioos:station:DISL:BSCA:1,2014-12-04T00:30:00Z,30.3288,-87.8293,2.182,8.51,1111122 
DISL,ioos:station:DISL:BSCA:1,2014-12-04T01:00:00Z,30.3288,-87.8293,2.194,8.08,1111122 
DISL,ioos:station:DISL:BSCA:1,2014-12-04T01:30:00Z,30.3288,-87.8293,2.207,5.64,1111122 
DISL,ioos:station:DISL:BSCA:1,2014-12-04T02:00:00Z,30.3288,-87.8293,2.21,5.21,1111122 
DISL,ioos:station:DISL:BSCA:1,2014-12-04T02:30:00Z,30.3288,-87.8293,2.215,6.74,1111122 
DISL,ioos:station:DISL:BSCA:1,2014-12-04T03:00:00Z,30.3288,-87.8293,2.214,6.57,1111122 
DISL,ioos:station:DISL:BSCA:1,2014-12-04T03:30:00Z,30.3288,-87.8293,2.222,7.11,1111122 
DISL,ioos:station:DISL:BSCA:1,2014-12-04T04:00:00Z,30.3288,-87.8293,2.199,6.8,1111122 
DISL,ioos:station:DISL:BSCA:1,2014-12-04T04:30:00Z,30.3288,-87.8293,2.19,6.97,1111122 
DISL,ioos:station:DISL:BSCA:1,2014-12-04T05:00:00Z,30.3288,-87.8293,2.141,6.9,1111122 
DISL,ioos:station:DISL:BSCA:1,2014-12-04T05:30:00Z,30.3288,-87.8293,2.114,7.19,1111122 
DISL,ioos:station:DISL:BSCA:1,2014-12-04T06:00:00Z,30.3288,-87.8293,2.068,6.99,1111122 
DISL,ioos:station:DISL:BSCA:1,2014-12-04T06:30:00Z,30.3288,-87.8293,2.04,6.93,1111122 
DISL,ioos:station:DISL:BSCA:1,2014-12-04T07:00:00Z,30.3288,-87.8293,1.989,4.69,1111122 
DISL,ioos:station:DISL:BSCA:1,2014-12-04T07:30:00Z,30.3288,-87.8293,1.957,6.87,1111122 
DISL,ioos:station:DISL:BSCA:1,2014-12-04T08:00:00Z,30.3288,-87.8293,1.926,4.57,1111122 
DISL,ioos:station:DISL:BSCA:1,2014-12-04T08:30:00Z,30.3288,-87.8293,1.898,5.31,1111122 
DISL,ioos:station:DISL:BSCA:1,2014-12-04T09:00:00Z,30.3288,-87.8293,1.869,4.01,1111122 
DISL,ioos:station:DISL:BSCA:1,2014-12-04T09:30:00Z,30.3288,-87.8293,1.838,3.46,1111122 
DISL,ioos:station:DISL:BSCA:1,2014-12-04T10:00:00Z,30.3288,-87.8293,1.806,4.43,1111122 
DISL,ioos:station:DISL:BSCA:1,2014-12-04T10:30:00Z,30.3288,-87.8293,1.781,3.49,1111122 
DISL,ioos:station:DISL:BSCA:1,2014-12-04T11:00:00Z,30.3288,-87.8293,1.747,4.33,1111122 
DISL,ioos:station:DISL:BSCA:1,2014-12-04T11:30:00Z,30.3288,-87.8293,1.724,3.3,1111122 
DISL,ioos:station:DISL:BSCA:1,2014-12-04T12:00:00Z,30.3288,-87.8293,1.7,3.55,1111122 
DISL,ioos:station:DISL:BSCA:1,2014-12-04T12:30:00Z,30.3288,-87.8293,1.679,3.53,1111122 
DISL,ioos:station:DISL:BSCA:1,2014-12-04T13:00:00Z,30.3288,-87.8293,1.668,3.55,1111122 
DISL,ioos:station:DISL:BSCA:1,2014-12-04T13:30:00Z,30.3288,-87.8293,1.656,2.9,1111122 
DISL,ioos:station:DISL:BSCA:1,2014-12-04T14:00:00Z,30.3288,-87.8293,1.659,3.88,1111122 
DISL,ioos:station:DISL:BSCA:1,2014-12-04T14:30:00Z,30.3288,-87.8293,1.667,2.77,1111122 
DISL,ioos:station:DISL:BSCA:1,2014-12-04T15:00:00Z,30.3288,-87.8293,1.692,3.29,1111122 
DISL,ioos:station:DISL:BSCA:1,2014-12-04T15:30:00Z,30.3288,-87.8293,1.715,4.1,1111122 
DISL,ioos:station:DISL:BSCA:1,2014-12-04T16:00:00Z,30.3288,-87.8293,1.747,4.79,1111122 
DISL,ioos:station:DISL:BSCA:1,2014-12-04T16:30:00Z,30.3288,-87.8293,1.774,5.35,1111122 
DISL,ioos:station:DISL:BSCA:1,2014-12-04T17:00:00Z,30.3288,-87.8293,1.798,6.04,1111122 
DISL,ioos:station:DISL:BSCA:1,2014-12-04T17:30:00Z,30.3288,-87.8293,1.829,6.7,1111122 
DISL,ioos:station:DISL:BSCA:1,2014-12-04T18:00:00Z,30.3288,-87.8293,1.842,6.8,1111122 
DISL,ioos:station:DISL:BSCA:1,2014-12-04T18:30:00Z,30.3288,-87.8293,1.855,6.89,1111122 
DISL,ioos:station:DISL:BSCA:1,2014-12-04T19:00:00Z,30.3288,-87.8293,1.873,6.83,1111122 
DISL,ioos:station:DISL:BSCA:1,2014-12-04T19:30:00Z,30.3288,-87.8293,1.893,6.69,1111122 
DISL,ioos:station:DISL:BSCA:1,2014-12-04T20:00:00Z,30.3288,-87.8293,1.91,6.83,1111122 
DISL,ioos:station:DISL:BSCA:1,2014-12-04T20:30:00Z,30.3288,-87.8293,1.966,6.64,1111122 
DISL,ioos:station:DISL:BSCA:1,2014-12-04T21:00:00Z,30.3288,-87.8293,1.983,6.53,1111122 
DISL,ioos:station:DISL:BSCA:1,2014-12-04T21:30:00Z,30.3288,-87.8293,1.993,6.3,1111122 
DISL,ioos:station:DISL:BSCA:1,2014-12-04T22:00:00Z,30.3288,-87.8293,2.027,6.2,1111122 
DISL,ioos:station:DISL:BSCA:1,2014-12-04T22:30:00Z,30.3288,-87.8293,2.048,7.53,1111122 
DISL,ioos:station:DISL:BSCA:1,2014-12-04T23:00:00Z,30.3288,-87.8293,2.075,6.75,1111122 
DISL,ioos:station:DISL:BSCA:1,2014-12-04T23:30:00Z,30.3288,-87.8293,2.101,5.43,1111122 
DISL,ioos:station:DISL:BSCA:1,2014-12-05T00:00:00Z,30.3288,-87.8293,2.124,5.97,1111122 
DISL,ioos:station:DISL:BSCA:1,2014-12-05T00:30:00Z,30.3288,-87.8293,2.151,4.4,1111122 
DISL,ioos:station:DISL:BSCA:1,2014-12-05T01:00:00Z,30.3288,-87.8293,2.169,5.14,1111122 
DISL,ioos:station:DISL:BSCA:1,2014-12-05T01:30:00Z,30.3288,-87.8293,2.201,4.22,1111122 
DISL,ioos:station:DISL:BSCA:1,2014-12-05T02:00:00Z,30.3288,-87.8293,2.208,3.78,1111122 
DISL,ioos:station:DISL:BSCA:1,2014-12-05T02:30:00Z,30.3288,-87.8293,2.228,5.44,1111122 
DISL,ioos:station:DISL:BSCA:1,2014-12-05T03:00:00Z,30.3288,-87.8293,2.233,4.53,1111122 
DISL,ioos:station:DISL:BSCA:1,2014-12-05T03:30:00Z,30.3288,-87.8293,2.229,4.37,1111122 
DISL,ioos:station:DISL:BSCA:1,2014-12-05T04:00:00Z,30.3288,-87.8293,2.223,4.41,1111122 
DISL,ioos:station:DISL:BSCA:1,2014-12-05T04:30:00Z,30.3288,-87.8293,2.211,4.96,1111122 
DISL,ioos:station:DISL:BSCA:1,2014-12-05T05:00:00Z,30.3288,-87.8293,2.193,5.27,1111122 
DISL,ioos:station:DISL:BSCA:1,2014-12-05T05:30:00Z,30.3288,-87.8293,2.174,4.81,1111122 
DISL,ioos:station:DISL:BSCA:1,2014-12-05T06:00:00Z,30.3288,-87.8293,2.146,5.54,1111122 
DISL,ioos:station:DISL:BSCA:1,2014-12-05T06:30:00Z,30.3288,-87.8293,2.108,5.64,1111122 
DISL,ioos:station:DISL:BSCA:1,2014-12-05T07:00:00Z,30.3288,-87.8293,2.065,5.78,1111122 
DISL,ioos:station:DISL:BSCA:1,2014-12-05T07:30:00Z,30.3288,-87.8293,2.03,4.92,1111122 
DISL,ioos:station:DISL:BSCA:1,2014-12-05T08:00:00Z,30.3288,-87.8293,1.996,4.28,1111122 
DISL,ioos:station:DISL:BSCA:1,2014-12-05T08:30:00Z,30.3288,-87.8293,1.962,4.73,1111122 
DISL,ioos:station:DISL:BSCA:1,2014-12-05T09:00:00Z,30.3288,-87.8293,1.919,4.57,1111122 
DISL,ioos:station:DISL:BSCA:1,2014-12-05T09:30:00Z,30.3288,-87.8293,1.894,4.75,1111122 
DISL,ioos:station:DISL:BSCA:1,2014-12-05T10:00:00Z,30.3288,-87.8293,1.847,3.96,1111122 
DISL,ioos:station:DISL:BSCA:1,2014-12-05T10:30:00Z,30.3288,-87.8293,1.817,2.89,1111122 
DISL,ioos:station:DISL:BSCA:1,2014-12-05T11:00:00Z,30.3288,-87.8293,1.804,3.07,1111122 
DISL,ioos:station:DISL:BSCA:1,2014-12-05T11:30:00Z,30.3288,-87.8293,1.795,2.74,1111122 
DISL,ioos:station:DISL:BSCA:1,2014-12-05T12:00:00Z,30.3288,-87.8293,1.757,2.93,1111122 
DISL,ioos:station:DISL:BSCA:1,2014-12-05T12:30:00Z,30.3288,-87.8293,1.743,2.34,1111122 
DISL,ioos:station:DISL:BSCA:1,2014-12-05T13:00:00Z,30.3288,-87.8293,1.722,2.38,1111122 
DISL,ioos:station:DISL:BSCA:1,2014-12-05T13:30:00Z,30.3288,-87.8293,1.713,2.65,1111122 
DISL,ioos:station:DISL:BSCA:1,2014-12-05T14:00:00Z,30.3288,-87.8293,1.711,2.44,1111122 
DISL,ioos:station:DISL:BSCA:1,2014-12-05T14:30:00Z,30.3288,-87.8293,1.712,3.02,1111122 
DISL,ioos:station:DISL:BSCA:1,2014-12-05T15:00:00Z,30.3288,-87.8293,1.721,2.93,1111122 
DISL,ioos:station:DISL:BSCA:1,2014-12-05T15:30:00Z,30.3288,-87.8293,1.731,3.4,1111122 
DISL,ioos:station:DISL:BSCA:1,2014-12-05T16:00:00Z,30.3288,-87.8293,1.773,4.89,1111122 
DISL,ioos:station:DISL:BSCA:1,2014-12-05T16:30:00Z,30.3288,-87.8293,1.802,6.24,1111122 
DISL,ioos:station:DISL:BSCA:1,2014-12-05T17:00:00Z,30.3288,-87.8293,1.836,6.34,1111122 
DISL,ioos:station:DISL:BSCA:1,2014-12-05T17:30:00Z,30.3288,-87.8293,1.87,6.52,1111122 
DISL,ioos:station:DISL:BSCA:1,2014-12-05T18:00:00Z,30.3288,-87.8293,1.887,6.8,1111122 
DISL,ioos:station:DISL:BSCA:1,2014-12-05T18:30:00Z,30.3288,-87.8293,1.909,6.52,1111122 
DISL,ioos:station:DISL:BSCA:1,2014-12-05T19:00:00Z,30.3288,-87.8293,1.921,6.7,1111122 
DISL,ioos:station:DISL:BSCA:1,2014-12-05T19:30:00Z,30.3288,-87.8293,1.939,6.63,1111122 
DISL,ioos:station:DISL:BSCA:1,2014-12-05T20:00:00Z,30.3288,-87.8293,1.96,6.36,1111122 
DISL,ioos:station:DISL:BSCA:1,2014-12-05T20:30:00Z,30.3288,-87.8293,2.001,6.54,1111122 
DISL,ioos:station:DISL:BSCA:1,2014-12-05T21:00:00Z,30.3288,-87.8293,2.031,6.91,1111122 
DISL,ioos:station:DISL:BSCA:1,2014-12-05T21:30:00Z,30.3288,-87.8293,2.065,6.03,1111122 
DISL,ioos:station:DISL:BSCA:1,2014-12-05T22:00:00Z,30.3288,-87.8293,2.094,5.66,1111122 
DISL,ioos:station:DISL:BSCA:1,2014-12-05T22:30:00Z,30.3288,-87.8293,2.129,6.04,1111122 
DISL,ioos:station:DISL:BSCA:1,2014-12-05T23:00:00Z,30.3288,-87.8293,2.159,5.37,1111122 
DISL,ioos:station:DISL:BSCA:1,2014-12-05T23:30:00Z,30.3288,-87.8293,2.178,6.49,1111122 
DISL,ioos:station:DISL:BSCA:1,2014-12-06T00:00:00Z,30.3288,-87.8293,2.194,7.02,1111122 
DISL,ioos:station:DISL:BSCA:1,2014-12-06T00:30:00Z,30.3288,-87.8293,2.226,5.43,1111122 
DISL,ioos:station:DISL:BSCA:1,2014-12-06T01:00:00Z,30.3288,-87.8293,2.256,5.67,1111122 
DISL,ioos:station:DISL:BSCA:1,2014-12-06T01:30:00Z,30.3288,-87.8293,2.277,6.12,1111122 
DISL,ioos:station:DISL:BSCA:1,2014-12-06T02:00:00Z,30.3288,-87.8293,2.309,4.85,1111122 
DISL,ioos:station:DISL:BSCA:1,2014-12-06T02:30:00Z,30.3288,-87.8293,2.325,5.54,1111122 
DISL,ioos:station:DISL:BSCA:1,2014-12-06T03:00:00Z,30.3288,-87.8293,2.336,4.88,1111122 
DISL,ioos:station:DISL:BSCA:1,2014-12-06T03:30:00Z,30.3288,-87.8293,2.339,4.47,1111122 
DISL,ioos:station:DISL:BSCA:1,2014-12-06T04:00:00Z,30.3288,-87.8293,2.325,5.58,1111122 
DISL,ioos:station:DISL:BSCA:1,2014-12-06T04:30:00Z,30.3288,-87.8293,2.315,5.92,1111122 
DISL,ioos:station:DISL:BSCA:1,2014-12-06T05:00:00Z,30.3288,-87.8293,2.287,5.68,1111122 
DISL,ioos:station:DISL:BSCA:1,2014-12-06T05:30:00Z,30.3288,-87.8293,2.285,4.86,1111122 
DISL,ioos:station:DISL:BSCA:1,2014-12-06T06:00:00Z,30.3288,-87.8293,2.238,5.14,1111122 
DISL,ioos:station:DISL:BSCA:1,2014-12-06T06:30:00Z,30.3288,-87.8293,2.194,5.42,1111122 
DISL,ioos:station:DISL:BSCA:1,2014-12-06T07:00:00Z,30.3288,-87.8293,2.16,5.75,1111122 
DISL,ioos:station:DISL:BSCA:1,2014-12-06T07:30:00Z,30.3288,-87.8293,2.113,4.91,1111122 
DISL,ioos:station:DISL:BSCA:1,2014-12-06T08:00:00Z,30.3288,-87.8293,2.072,4.01,1111122 
DISL,ioos:station:DISL:BSCA:1,2014-12-06T08:30:00Z,30.3288,-87.8293,2.028,4.36,1111122 
DISL,ioos:station:DISL:BSCA:1,2014-12-06T09:00:00Z,30.3288,-87.8293,1.987,4.03,1111122 
DISL,ioos:station:DISL:BSCA:1,2014-12-06T09:30:00Z,30.3288,-87.8293,1.949,3.71,1111122 
DISL,ioos:station:DISL:BSCA:1,2014-12-06T10:00:00Z,30.3288,-87.8293,1.91,3.04,1111122 
DISL,ioos:station:DISL:BSCA:1,2014-12-06T10:30:00Z,30.3288,-87.8293,1.877,3.94,1111122 
DISL,ioos:station:DISL:BSCA:1,2014-12-06T11:00:00Z,30.3288,-87.8293,1.842,4.44,1111122 
DISL,ioos:station:DISL:BSCA:1,2014-12-06T11:30:00Z,30.3288,-87.8293,1.813,5.44,1111122 
DISL,ioos:station:DISL:BSCA:1,2014-12-06T12:00:00Z,30.3288,-87.8293,1.785,5.89,1111122 
DISL,ioos:station:DISL:BSCA:1,2014-12-06T12:30:00Z,30.3288,-87.8293,1.765,5.73,1111122 
DISL,ioos:station:DISL:BSCA:1,2014-12-06T13:00:00Z,30.3288,-87.8293,1.736,4.37,1111122 
DISL,ioos:station:DISL:BSCA:1,2014-12-06T13:30:00Z,30.3288,-87.8293,1.714,5.73,1111122 
DISL,ioos:station:DISL:BSCA:1,2014-12-06T14:00:00Z,30.3288,-87.8293,1.697,5.24,1111122 
DISL,ioos:station:DISL:BSCA:1,2014-12-06T14:30:00Z,30.3288,-87.8293,1.676,5.73,1111122 
DISL,ioos:station:DISL:BSCA:1,2014-12-06T15:00:00Z,30.3288,-87.8293,1.671,6.19,1111122 
DISL,ioos:station:DISL:BSCA:1,2014-12-06T15:30:00Z,30.3288,-87.8293,1.669,5.63,1111122 